Luxor, Egypt

9:19 AM EET on December 03, 2016 (GMT +0200)
Luxor International

Weather History for HELX - December, 2013

Change the Weather History Date:

Wednesday, December 25, 2013

  Actual Average Record
Temperature  
Mean Temperature 63 °F -  
Max Temperature 79 °F 71 °F 79 °F (2013)
Min Temperature 47 °F 44 °F 42 °F (1997)
Degree Days  
Heating Degree Days 2    
Growing Degree Days 13 (Base 50)    
Moisture  
Dew Point 44 °F    
Average Humidity 49    
Maximum Humidity 67    
Minimum Humidity 28    
Precipitation  
Precipitation 0.00 in - - ()
Sea Level Pressure  
Sea Level Pressure 30.09 in    
Wind  
Wind Speed 1 mph ()    
Max Wind Speed 4 mph    
Max Gust Speed -    
Visibility 6.0 miles    
Events      
Averages and records for this station are not official NWS values.
T = Trace of Precipitation, MM = Missing Value Source: Averaged Metar Reports

Daily Weather History Graph

Daily Weather History Graph

Search for Another Location

Airport or City:

Trip Planner

Search our weather history database for the weather conditions in past years. The results will help you decide how hot, cold, wet, or windy it might be!

Date:

Astronomy

Dec. 25, 2013 Rise Set
Actual Time 6:33 AM EET 5:05 PM EET
Civil Twilight 6:07 AM EET 5:30 PM EET
Nautical Twilight 5:39 AM EET 5:59 PM EET
Astronomical Twilight 5:11 AM EET 6:27 PM EET
Moon No Moon Rise 11:27 AM EET (12/25)
Length of Visible Light 11h 22m
Length of Day
10h 32m
Waning Gibbous, 52% of the Moon is Illuminated
Dec 25
Waning Gibbous
Dec 25
Last Quarter
Jan 1
New
Jan 8
First Quarter
Jan 16
Full

Hourly Weather History & Observations

Time (EET) Temp. Dew Point Humidity Pressure Visibility Wind Dir Wind Speed Gust Speed Precip Events Conditions
12:00 AM 59.0 °F 41.0 °F 51% 30.12 in - North 3.5 mph - N/A   Clear
1:00 AM 57.2 °F 41.0 °F 55% 30.12 in - North 2.3 mph - N/A   Clear
2:00 AM 55 °F 41 °F 48% 30.14 in 6 mi Calm Calm - -  
2:00 AM 55.4 °F 41.0 °F 58% 30.12 in - Calm Calm - N/A   Clear
3:00 AM 53.6 °F 41.0 °F 62% 30.12 in - ENE 2.3 mph - N/A   Clear
4:00 AM 51.8 °F 41.0 °F 67% 30.09 in - Calm Calm - N/A   Clear
5:00 AM 50 °F 37 °F 50% 30.13 in 6 mi Calm Calm - -  
5:00 AM 50.0 °F 37.4 °F 62% 30.12 in - Calm Calm - N/A   Clear
6:00 AM 48.2 °F 35.6 °F 62% 30.12 in - SE 2.3 mph - N/A   Clear
7:00 AM 48.2 °F 35.6 °F 62% 30.12 in - Calm Calm - N/A   Clear
8:00 AM 54 °F 38 °F 43% 30.16 in 6 mi Calm Calm - -   Partly Cloudy
8:00 AM 53.6 °F 37.4 °F 54% 30.15 in - Calm Calm - N/A   Clear
9:00 AM 57.2 °F 39.2 °F 51% 30.15 in - ENE 3.5 mph - N/A   Clear
10:00 AM 64.4 °F 41.0 °F 42% 30.12 in - Calm Calm - N/A   Clear
11:00 AM 71 °F 48 °F 33% 30.12 in 6 mi Calm Calm - -   Partly Cloudy
11:00 AM 73.4 °F 48.2 °F 41% 30.09 in - Calm Calm - N/A   Clear
1:00 PM 77.0 °F 51.8 °F 41% 30.04 in - Calm Calm - N/A   Clear
2:00 PM 78 °F 51 °F 28% 30.04 in 6 mi NW 3.5 mph - -  
2:00 PM 78.8 °F 50.0 °F 36% 30.04 in - NW 3.5 mph - N/A   Clear
3:00 PM 78.8 °F 48.2 °F 34% 30.04 in - WNW 3.5 mph - N/A   Clear
4:00 PM 78.8 °F 48.2 °F 34% 30.01 in - WNW 1.2 mph - N/A   Clear
5:00 PM 75.2 °F 51.8 °F 44% 30.04 in - WSW 2.3 mph - N/A   Clear
6:00 PM 71.6 °F 48.2 °F 43% 30.04 in - Calm Calm - N/A   Clear
7:00 PM 68.0 °F 51.8 °F 56% 30.04 in - Calm Calm - N/A   Clear
8:00 PM 66 °F 45 °F 35% 30.05 in 6 mi NE 1.2 mph - -  
8:00 PM 66.2 °F 44.6 °F 46% 30.04 in - NE 1.2 mph - N/A   Clear
9:00 PM 62.6 °F 46.4 °F 55% 30.04 in - Calm Calm - N/A   Clear
10:00 PM 59.0 °F 46.4 °F 63% 30.06 in - Calm Calm - N/A   Clear
11:00 PM 63 °F 49 °F 49% 30.05 in 6 mi Calm Calm - -  
11:00 PM 62.6 °F 48.2 °F 59% 30.04 in - Calm Calm - N/A   Clear